SIA27 WSSS-CYUL

Flight info

Callsign SIA27
Flight time N/A
Altitude 35000
Route VMR9B VMR M771 DUDIS/K0937F350 M771 DAGAG M765 ALDAS L625 ANOKI/N0505F350 L625 MEVIN B462 KAZIK Y59 AZAMA Y57 PUTER A590 HAMND DCT NOEND DCT YAK NCA10 DEEJA DCT GUDEN DCT YOJ DCT PETMA DCT YIV DCT YGQ DCT SMARE DCT AVVON ALOET4
Aircraft A359/H-SDE2E3GHIJ3J4J5LM1ORWXY/LB1D1

Departure

Time 2026-05-08 06:18
Airport Singapore Changi Airport (WSSS)

Arrival

Time N/A
Airport Montreal / Pierre Elliott Trudeau International Airport (CYUL)
Time Latitude Longitude Altitude Speed Heading
2026-05-08 05:51 1.35276 103.98406 39 ft 0 kts 109°
2026-05-08 06:06 1.35277 103.98403 39 ft 3 kts 109°
2026-05-08 06:06 1.35286 103.98378 36 ft 4 kts 109°
2026-05-08 06:06 1.35295 103.98354 37 ft 2 kts 109°
2026-05-08 06:07 1.35300 103.98333 36 ft 4 kts 81°
2026-05-08 06:07 1.35293 103.98314 36 ft 4 kts 44°
2026-05-08 06:07 1.35273 103.98299 39 ft 4 kts 26°
2026-05-08 06:07 1.35256 103.98292 38 ft 1 kts 22°
2026-05-08 06:08 1.35254 103.98291 38 ft 0 kts 22°
2026-05-08 06:10 1.35271 103.98298 38 ft 7 kts 22°
2026-05-08 06:10 1.35346 103.98307 39 ft 14 kts 351°
2026-05-08 06:10 1.35441 103.98284 39 ft 14 kts 357°
2026-05-08 06:11 1.35536 103.98311 39 ft 18 kts 22°
2026-05-08 06:11 1.35663 103.98364 39 ft 20 kts 22°
2026-05-08 06:11 1.35784 103.98414 39 ft 18 kts 22°
2026-05-08 06:11 1.35894 103.98459 39 ft 16 kts 22°
2026-05-08 06:12 1.35993 103.98500 39 ft 14 kts 22°
2026-05-08 06:12 1.36093 103.98541 39 ft 17 kts 22°
2026-05-08 06:12 1.36213 103.98592 39 ft 21 kts 22°
2026-05-08 06:12 1.36350 103.98649 39 ft 21 kts 22°
2026-05-08 06:13 1.36475 103.98701 39 ft 18 kts 22°
2026-05-08 06:13 1.36594 103.98753 39 ft 22 kts 23°
2026-05-08 06:13 1.36728 103.98810 39 ft 20 kts 23°
2026-05-08 06:13 1.36785 103.98896 39 ft 16 kts 101°
2026-05-08 06:14 1.36737 103.99014 39 ft 19 kts 114°
2026-05-08 06:14 1.36689 103.99125 39 ft 16 kts 113°
2026-05-08 06:14 1.36645 103.99227 39 ft 17 kts 113°
2026-05-08 06:14 1.36600 103.99333 39 ft 16 kts 113°
2026-05-08 06:15 1.36558 103.99431 39 ft 15 kts 113°
2026-05-08 06:15 1.36517 103.99527 39 ft 16 kts 113°
2026-05-08 06:15 1.36472 103.99630 38 ft 17 kts 113°
2026-05-08 06:15 1.36427 103.99737 38 ft 16 kts 112°
2026-05-08 06:16 1.36394 103.99815 38 ft 0 kts 112°
2026-05-08 06:16 1.36388 103.99829 38 ft 9 kts 118°
2026-05-08 06:16 1.36287 103.99874 37 ft 20 kts 171°
2026-05-08 06:16 1.36155 103.99884 36 ft 11 kts 200°
2026-05-08 06:17 1.36149 103.99881 36 ft 0 kts 201°
2026-05-08 06:17 1.36139 103.99877 36 ft 10 kts 201°
2026-05-08 06:17 1.35904 103.99775 38 ft 62 kts 204°
2026-05-08 06:18 1.35355 103.99544 40 ft 108 kts 202°
2026-05-08 06:18 1.34533 103.99196 40 ft 147 kts 202°
2026-05-08 06:18 1.33492 103.98763 227 ft 165 kts 201°
2026-05-08 06:18 1.32439 103.98335 651 ft 168 kts 200°
2026-05-08 06:19 1.31321 103.97864 966 ft 177 kts 203°
2026-05-08 06:19 1.30167 103.97366 1236 ft 187 kts 203°
2026-05-08 06:19 1.28925 103.96832 1432 ft 202 kts 203°
2026-05-08 06:19 1.27596 103.96266 1538 ft 220 kts 203°
2026-05-08 06:20 1.26130 103.95645 1695 ft 236 kts 203°
2026-05-08 06:20 1.24541 103.95055 1901 ft 251 kts 193°
2026-05-08 06:20 1.22784 103.95050 2249 ft 258 kts 164°
2026-05-08 06:20 1.21216 103.95910 2696 ft 260 kts 141°
2026-05-08 06:21 1.19840 103.97103 3150 ft 264 kts 139°
2026-05-08 06:21 1.18465 103.98336 3606 ft 266 kts 139°
2026-05-08 06:21 1.17118 103.99618 4045 ft 270 kts 131°
2026-05-08 06:21 1.16211 104.01263 4454 ft 274 kts 105°
2026-05-08 06:22 1.16163 104.03158 4930 ft 278 kts 76°
2026-05-08 06:22 1.17005 104.04903 5553 ft 281 kts 53°
2026-05-08 06:22 1.18212 104.06448 6175 ft 284 kts 51°
2026-05-08 06:22 1.19464 104.07979 6689 ft 285 kts 49°
2026-05-08 06:23 1.20969 104.09261 7118 ft 285 kts 31°
2026-05-08 06:23 1.22673 104.10245 7573 ft 287 kts 28°
2026-05-08 06:23 1.24434 104.11212 8022 ft 290 kts 28°
2026-05-08 06:23 1.26237 104.12132 8464 ft 293 kts 21°
2026-05-08 06:24 1.28238 104.12468 8889 ft 294 kts 354°
2026-05-08 06:24 1.30166 104.11842 9343 ft 295 kts 326°
2026-05-08 06:24 1.31791 104.10593 9810 ft 296 kts 319°
2026-05-08 06:24 1.33363 104.09226 10185 ft 302 kts 319°
2026-05-08 06:25 1.34983 104.07822 10365 ft 314 kts 319°
2026-05-08 06:25 1.36677 104.06370 10543 ft 327 kts 320°
2026-05-08 06:25 1.38384 104.04916 10732 ft 338 kts 320°
2026-05-08 06:25 1.40206 104.03373 10939 ft 348 kts 320°
2026-05-08 06:26 1.42237 104.02051 11190 ft 359 kts 337°
2026-05-08 06:26 1.44615 104.01179 11480 ft 368 kts 343°
2026-05-08 06:26 1.47082 104.00395 11682 ft 377 kts 343°
2026-05-08 06:26 1.49618 103.99592 11830 ft 386 kts 343°
2026-05-08 06:27 1.52205 103.98766 11964 ft 394 kts 343°
2026-05-08 06:27 1.54842 103.97917 12132 ft 401 kts 343°
2026-05-08 06:27 1.57513 103.97055 12431 ft 404 kts 343°
2026-05-08 06:27 1.60194 103.96189 12743 ft 406 kts 343°
2026-05-08 06:28 1.62891 103.95317 13077 ft 408 kts 343°
2026-05-08 06:28 1.65566 103.94451 13392 ft 410 kts 343°
2026-05-08 06:28 1.68286 103.93571 13696 ft 412 kts 343°
2026-05-08 06:28 1.71022 103.92685 13961 ft 414 kts 343°
2026-05-08 06:29 1.73770 103.91799 14218 ft 416 kts 343°
2026-05-08 06:29 1.76593 103.91162 14461 ft 417 kts 354°
2026-05-08 06:29 1.79487 103.90913 14737 ft 418 kts 358°
2026-05-08 06:29 1.82392 103.90736 14998 ft 420 kts 358°
2026-05-08 06:30 1.85312 103.90562 15266 ft 421 kts 358°
2026-05-08 06:30 1.88248 103.90382 15522 ft 423 kts 358°
2026-05-08 06:30 1.91192 103.90198 15782 ft 425 kts 358°
2026-05-08 06:30 1.94151 103.90012 16036 ft 426 kts 358°
2026-05-08 06:31 1.97122 103.89824 16276 ft 428 kts 358°
2026-05-08 06:31 2.00099 103.89635 16523 ft 430 kts 358°
2026-05-08 06:31 2.03067 103.89446 16774 ft 432 kts 358°
2026-05-08 06:31 2.06067 103.89256 17012 ft 433 kts 358°
2026-05-08 06:32 2.09086 103.89063 17247 ft 435 kts 358°
2026-05-08 06:32 2.12116 103.88870 17494 ft 437 kts 358°
2026-05-08 06:32 2.15158 103.88676 17738 ft 438 kts 358°
2026-05-08 06:32 2.18210 103.88482 17961 ft 440 kts 358°
2026-05-08 06:33 2.21278 103.88287 18197 ft 441 kts 358°
2026-05-08 06:33 2.24321 103.88093 18397 ft 443 kts 358°
2026-05-08 06:33 2.27393 103.87898 18596 ft 444 kts 358°
2026-05-08 06:33 2.30490 103.87700 18804 ft 446 kts 358°
2026-05-08 06:34 2.33578 103.87506 18998 ft 447 kts 358°
2026-05-08 06:34 2.36698 103.87528 19178 ft 446 kts
2026-05-08 06:34 2.38756 103.87882 19305 ft 445 kts 16°
2026-05-08 06:34 2.41615 103.88946 19485 ft 443 kts 28°
2026-05-08 06:35 2.44329 103.90409 19695 ft 443 kts 32°
2026-05-08 06:35 2.46963 103.92008 19895 ft 444 kts 34°
2026-05-08 06:35 2.49573 103.93673 20084 ft 445 kts 34°
2026-05-08 06:35 2.52177 103.95356 20275 ft 446 kts 34°
2026-05-08 06:36 2.54799 103.97042 20455 ft 448 kts 34°
2026-05-08 06:36 2.57441 103.98722 20660 ft 449 kts 34°
2026-05-08 06:36 2.60088 104.00388 20841 ft 450 kts 33°
2026-05-08 06:36 2.62754 104.02054 21042 ft 452 kts 33°
2026-05-08 06:37 2.65393 104.03697 21233 ft 453 kts 33°
2026-05-08 06:37 2.68075 104.05365 21423 ft 454 kts 33°
2026-05-08 06:37 2.70765 104.07037 21619 ft 456 kts 33°
2026-05-08 06:37 2.73463 104.08714 21813 ft 457 kts 33°
2026-05-08 06:38 2.76168 104.10397 22009 ft 458 kts 33°
2026-05-08 06:38 2.78893 104.12093 22192 ft 460 kts 33°
2026-05-08 06:38 2.81617 104.13789 22385 ft 461 kts 33°
2026-05-08 06:38 2.84344 104.15488 22578 ft 463 kts 33°
2026-05-08 06:39 2.87082 104.17192 22764 ft 464 kts 33°
2026-05-08 06:39 2.89794 104.18881 22957 ft 465 kts 33°
2026-05-08 06:39 2.92553 104.20599 23144 ft 467 kts 33°
2026-05-08 06:39 2.95321 104.22323 23331 ft 469 kts 33°
2026-05-08 06:40 2.98100 104.24054 23505 ft 470 kts 33°
2026-05-08 06:40 3.00876 104.25783 23667 ft 471 kts 33°
2026-05-08 06:40 3.03664 104.27521 23827 ft 472 kts 33°
2026-05-08 06:40 3.06460 104.29264 23994 ft 474 kts 33°
2026-05-08 06:41 3.09252 104.31025 24167 ft 475 kts 34°
2026-05-08 06:41 3.12042 104.32797 24340 ft 476 kts 34°
2026-05-08 06:41 3.14838 104.34576 24505 ft 477 kts 34°
2026-05-08 06:41 3.17654 104.36344 24679 ft 479 kts 33°
2026-05-08 06:42 3.20496 104.38107 24868 ft 480 kts 33°
2026-05-08 06:42 3.23300 104.39840 25042 ft 481 kts 33°
2026-05-08 06:42 3.26158 104.41606 25230 ft 483 kts 33°
2026-05-08 06:42 3.29014 104.43372 25419 ft 484 kts 33°
2026-05-08 06:43 3.31886 104.45151 25613 ft 485 kts 33°
2026-05-08 06:43 3.34757 104.46933 25810 ft 487 kts 33°
2026-05-08 06:43 3.37643 104.48724 26002 ft 488 kts 33°
2026-05-08 06:43 3.40531 104.50518 26204 ft 490 kts 33°
2026-05-08 06:44 3.43426 104.52317 26404 ft 491 kts 33°
2026-05-08 06:44 3.46334 104.54128 26616 ft 493 kts 33°
2026-05-08 06:44 3.49249 104.55942 26807 ft 494 kts 33°
2026-05-08 06:44 3.52180 104.57763 27023 ft 496 kts 33°
2026-05-08 06:45 3.55124 104.59590 27234 ft 497 kts 33°
2026-05-08 06:45 3.58069 104.61418 27438 ft 499 kts 33°
2026-05-08 06:45 3.61026 104.63255 27642 ft 501 kts 33°
2026-05-08 06:45 3.63988 104.65096 27842 ft 502 kts 33°
2026-05-08 06:46 3.66960 104.66942 28046 ft 504 kts 33°
2026-05-08 06:46 3.69944 104.68798 28232 ft 505 kts 33°
2026-05-08 06:46 3.72939 104.70660 28420 ft 507 kts 33°
2026-05-08 06:46 3.75936 104.72523 28621 ft 508 kts 33°
2026-05-08 06:47 3.78909 104.74373 28879 ft 508 kts 33°
2026-05-08 06:47 3.81916 104.76242 29165 ft 507 kts 33°
2026-05-08 06:47 3.84917 104.78106 29429 ft 506 kts 33°
2026-05-08 06:47 3.87908 104.79967 29694 ft 506 kts 33°
2026-05-08 06:48 3.90902 104.81830 29947 ft 506 kts 33°
2026-05-08 06:48 3.93889 104.83690 30141 ft 505 kts 33°
2026-05-08 06:48 3.96878 104.85551 30329 ft 505 kts 33°
2026-05-08 06:48 3.99869 104.87413 30521 ft 505 kts 33°
2026-05-08 06:49 4.02850 104.89269 30715 ft 505 kts 33°
2026-05-08 06:49 4.05795 104.91103 30904 ft 505 kts 33°
2026-05-08 06:49 4.08781 104.92962 31091 ft 505 kts 33°
2026-05-08 06:49 4.11766 104.94821 31271 ft 505 kts 33°
2026-05-08 06:50 4.14751 104.96680 31472 ft 504 kts 33°
2026-05-08 06:50 4.17731 104.98536 31672 ft 504 kts 33°
2026-05-08 06:50 4.20712 105.00393 31862 ft 503 kts 33°
2026-05-08 06:50 4.23684 105.02251 32037 ft 503 kts 33°
2026-05-08 06:51 4.26664 105.04104 32218 ft 503 kts 33°
2026-05-08 06:51 4.29635 105.05948 32400 ft 502 kts 33°
2026-05-08 06:51 4.32568 105.07766 32561 ft 502 kts 33°
2026-05-08 06:51 4.35540 105.09609 32739 ft 502 kts 33°
2026-05-08 06:52 4.38506 105.11450 32922 ft 501 kts 33°
2026-05-08 06:52 4.41473 105.13293 33087 ft 501 kts 33°
2026-05-08 06:52 4.44434 105.15133 33227 ft 501 kts 33°
2026-05-08 06:52 4.47424 105.16991 33387 ft 500 kts 33°
2026-05-08 06:53 4.50352 105.18812 33532 ft 500 kts 33°
2026-05-08 06:53 4.53311 105.20652 33703 ft 500 kts 33°
2026-05-08 06:53 4.56270 105.22492 33840 ft 499 kts 33°
2026-05-08 06:53 4.59226 105.24331 33963 ft 499 kts 33°
2026-05-08 06:54 4.62175 105.26165 34101 ft 499 kts 33°
2026-05-08 06:54 4.65086 105.27976 34220 ft 498 kts 33°
2026-05-08 06:54 4.68029 105.29806 34350 ft 498 kts 33°
2026-05-08 06:54 4.70973 105.31638 34457 ft 498 kts 33°
2026-05-08 06:55 4.73917 105.33470 34580 ft 497 kts 33°
2026-05-08 06:55 4.76853 105.35297 34696 ft 497 kts 33°
2026-05-08 06:55 4.79792 105.37126 34812 ft 496 kts 33°
2026-05-08 06:55 4.82728 105.38960 34922 ft 496 kts 33°
2026-05-08 06:56 4.85631 105.40822 35026 ft 495 kts 34°
2026-05-08 06:56 4.88524 105.42711 35132 ft 495 kts 34°
2026-05-08 06:56 4.91365 105.44579 35235 ft 495 kts 34°
2026-05-08 06:56 4.94242 105.46469 35333 ft 494 kts 34°
2026-05-08 06:57 5.00007 105.50242 35512 ft 494 kts 34°
2026-05-08 06:57 5.02889 105.52121 35615 ft 494 kts 34°
2026-05-08 06:57 5.05772 105.54000 35690 ft 493 kts 34°
2026-05-08 06:58 5.11534 105.57751 35857 ft 493 kts 34°
2026-05-08 06:58 5.17295 105.61502 36008 ft 493 kts 34°
2026-05-08 06:59 5.23043 105.65246 36160 ft 492 kts 34°
2026-05-08 06:59 5.28788 105.68991 36315 ft 492 kts 34°
2026-05-08 07:00 5.34508 105.72719 36440 ft 492 kts 34°
2026-05-08 07:00 5.40241 105.76457 36577 ft 491 kts 34°
2026-05-08 07:01 5.45980 105.80199 36702 ft 491 kts 34°
2026-05-08 07:01 5.51669 105.83910 36764 ft 492 kts 34°
2026-05-08 07:02 5.57426 105.87666 36805 ft 493 kts 34°
2026-05-08 07:02 5.63181 105.91421 36835 ft 494 kts 34°
2026-05-08 07:03 5.68954 105.95190 36835 ft 496 kts 34°
2026-05-08 07:03 5.74754 105.98976 36835 ft 498 kts 34°
2026-05-08 07:04 5.80569 106.02774 36831 ft 499 kts 34°
2026-05-08 07:04 5.86406 106.06587 36830 ft 500 kts 33°
2026-05-08 07:05 5.92208 106.10377 36828 ft 501 kts 33°
2026-05-08 07:05 5.98057 106.14200 36829 ft 502 kts 33°
2026-05-08 07:06 6.03920 106.18032 36827 ft 502 kts 33°
2026-05-08 07:06 6.09783 106.21866 36829 ft 502 kts 33°
2026-05-08 07:07 6.15604 106.25673 36831 ft 502 kts 33°
2026-05-08 07:07 6.21508 106.29535 36831 ft 502 kts 33°
2026-05-08 07:08 6.27329 106.33345 36826 ft 502 kts 33°
2026-05-08 07:08 6.33203 106.37190 36828 ft 502 kts 33°
2026-05-08 07:09 6.39064 106.41027 36827 ft 502 kts 33°
2026-05-08 07:09 6.44920 106.44863 36828 ft 502 kts 33°
2026-05-08 07:10 6.50739 106.48674 36828 ft 502 kts 33°
2026-05-08 07:10 6.56591 106.52509 36829 ft 502 kts 33°
2026-05-08 07:11 6.62437 106.56341 36830 ft 501 kts 33°
2026-05-08 07:11 6.68284 106.60175 36829 ft 501 kts 33°
2026-05-08 07:12 6.74127 106.64008 36827 ft 501 kts 33°
2026-05-08 07:12 6.79966 106.67838 36826 ft 500 kts 33°
2026-05-08 07:13 6.85802 106.71668 36825 ft 500 kts 33°
2026-05-08 07:13 6.91626 106.75492 36826 ft 499 kts 33°
2026-05-08 07:14 6.97414 106.79294 36824 ft 499 kts 33°
2026-05-08 07:14 7.03222 106.83116 36823 ft 499 kts 33°
2026-05-08 07:15 7.09027 106.86934 36826 ft 498 kts 33°
2026-05-08 07:15 7.14824 106.90746 36825 ft 497 kts 32°
2026-05-08 07:16 7.20622 106.94561 36824 ft 497 kts 32°
2026-05-08 07:16 7.26412 106.98373 36823 ft 496 kts 32°
2026-05-08 07:17 7.32154 107.02155 36826 ft 496 kts 32°
2026-05-08 07:17 7.37937 107.05965 36825 ft 496 kts 32°
2026-05-08 07:18 7.43709 107.09770 36825 ft 496 kts 32°
2026-05-08 07:18 7.49487 107.13578 36827 ft 496 kts 32°
2026-05-08 07:19 7.55262 107.17387 36824 ft 496 kts 32°
2026-05-08 07:19 7.61036 107.21197 36828 ft 496 kts 32°
2026-05-08 07:20 7.66771 107.24982 36828 ft 496 kts 32°
2026-05-08 07:20 7.72542 107.28791 36827 ft 495 kts 32°
2026-05-08 07:21 7.78310 107.32600 36824 ft 495 kts 32°
2026-05-08 07:21 7.84076 107.36410 36823 ft 495 kts 32°
2026-05-08 07:22 7.88865 107.39574 36823 ft 495 kts 32°
2026-05-08 07:22 7.94624 107.43381 36825 ft 495 kts 32°
2026-05-08 07:23 8.00382 107.47188 36825 ft 495 kts 32°
2026-05-08 07:23 8.06138 107.50995 36825 ft 494 kts 32°
2026-05-08 07:24 8.11895 107.54804 36828 ft 494 kts 32°
2026-05-08 07:24 8.17646 107.58611 36826 ft 494 kts 32°
2026-05-08 07:25 8.23394 107.62417 36826 ft 494 kts 32°
2026-05-08 07:26 8.32013 107.68126 36826 ft 493 kts 32°
2026-05-08 07:26 8.37758 107.71934 36826 ft 493 kts 32°
2026-05-08 07:27 8.43456 107.75712 36826 ft 493 kts 32°
2026-05-08 07:27 8.49204 107.79524 36827 ft 493 kts 33°
2026-05-08 07:28 8.54939 107.83329 36829 ft 493 kts 33°
2026-05-08 07:28 8.60679 107.87138 36826 ft 494 kts 33°
2026-05-08 07:29 8.66424 107.90953 36828 ft 494 kts 33°
2026-05-08 07:29 8.72173 107.94771 36829 ft 494 kts 33°
2026-05-08 07:30 8.77885 107.98566 36829 ft 494 kts 33°
2026-05-08 07:30 8.83634 108.02388 36831 ft 494 kts 33°
2026-05-08 07:31 8.89386 108.06212 36830 ft 494 kts 33°
2026-05-08 07:31 8.95131 108.10034 36828 ft 494 kts 33°
2026-05-08 07:32 9.00840 108.13833 36831 ft 494 kts 33°
2026-05-08 07:32 9.06589 108.17660 36828 ft 494 kts 33°
2026-05-08 07:33 9.12339 108.21489 36834 ft 494 kts 33°
2026-05-08 07:33 9.18093 108.25322 36831 ft 494 kts 33°
2026-05-08 07:34 9.23836 108.29150 36829 ft 494 kts 33°
2026-05-08 07:34 9.29567 108.32971 36829 ft 494 kts 33°
2026-05-08 07:35 9.35318 108.36808 36830 ft 494 kts 33°
2026-05-08 07:35 9.41061 108.40665 36825 ft 494 kts 35°
2026-05-08 07:36 9.46042 108.45451 36830 ft 496 kts 52°
2026-05-08 07:36 9.49364 108.51514 36829 ft 498 kts 65°
2026-05-08 07:37 9.52010 108.58006 36829 ft 499 kts 67°
2026-05-08 07:37 9.54567 108.64538 36830 ft 499 kts 67°
2026-05-08 07:38 9.57153 108.71070 36829 ft 499 kts 66°
2026-05-08 07:38 9.59758 108.77580 36832 ft 499 kts 66°
2026-05-08 07:39 9.62378 108.84107 36832 ft 499 kts 66°
2026-05-08 07:39 9.64988 108.90618 36835 ft 499 kts 66°
2026-05-08 07:40 9.67598 108.97133 36832 ft 499 kts 66°
2026-05-08 07:40 9.70206 109.03648 36830 ft 499 kts 66°
2026-05-08 07:41 9.72796 109.10124 36832 ft 499 kts 66°
2026-05-08 07:41 9.75411 109.16668 36831 ft 499 kts 66°
2026-05-08 07:42 9.78019 109.23197 36832 ft 499 kts 66°
2026-05-08 07:42 9.80629 109.29736 36834 ft 499 kts 66°
2026-05-08 07:43 9.83217 109.36221 36835 ft 499 kts 66°
2026-05-08 07:43 9.85824 109.42755 36835 ft 499 kts 66°
2026-05-08 07:44 9.88427 109.49286 36833 ft 500 kts 66°
2026-05-08 07:44 9.91030 109.55821 36833 ft 499 kts 66°
2026-05-08 07:45 9.93630 109.62353 36832 ft 499 kts 66°
2026-05-08 07:45 9.96229 109.68886 36829 ft 499 kts 66°
2026-05-08 07:46 9.98829 109.75427 36833 ft 499 kts 66°
2026-05-08 07:46 10.01424 109.81959 36833 ft 499 kts 66°
2026-05-08 07:47 10.04017 109.88489 36834 ft 499 kts 66°
2026-05-08 07:47 10.06608 109.95022 36832 ft 499 kts 66°
2026-05-08 07:48 10.09201 110.01560 36833 ft 499 kts 66°
2026-05-08 07:48 10.11773 110.08053 36830 ft 499 kts 66°
2026-05-08 07:49 10.14362 110.14589 36837 ft 499 kts 66°
2026-05-08 07:49 10.16947 110.21122 36836 ft 499 kts 66°
2026-05-08 07:50 10.19533 110.27663 36831 ft 499 kts 66°
2026-05-08 07:50 10.22119 110.34207 36834 ft 499 kts 66°
2026-05-08 07:51 10.24695 110.40743 36832 ft 499 kts 66°
2026-05-08 07:51 10.27269 110.47280 36832 ft 499 kts 66°
2026-05-08 07:52 10.29828 110.53782 36830 ft 499 kts 66°
2026-05-08 07:52 10.32406 110.60340 36831 ft 499 kts 66°
2026-05-08 07:53 10.34978 110.66884 36832 ft 499 kts 67°
2026-05-08 07:53 10.37550 110.73434 36833 ft 499 kts 67°
2026-05-08 07:54 10.40127 110.79998 36831 ft 500 kts 67°
2026-05-08 07:54 10.42698 110.86555 36833 ft 500 kts 67°
2026-05-08 07:55 10.45257 110.93086 36833 ft 500 kts 67°
2026-05-08 07:55 10.47829 110.99652 36834 ft 500 kts 67°
2026-05-08 07:56 10.50403 111.06228 36834 ft 500 kts 67°
2026-05-08 07:56 10.52973 111.12800 36836 ft 500 kts 67°
2026-05-08 07:57 10.55539 111.19365 36834 ft 500 kts 67°
2026-05-08 07:57 10.58111 111.25950 36836 ft 500 kts 67°
2026-05-08 07:58 10.60665 111.32495 36834 ft 500 kts 67°
2026-05-08 07:58 10.63233 111.39078 36835 ft 500 kts 67°
2026-05-08 07:59 10.65792 111.45645 36835 ft 501 kts 67°
2026-05-08 07:59 10.68363 111.52246 36836 ft 501 kts 67°
2026-05-08 08:00 10.70927 111.58834 36833 ft 501 kts 67°
2026-05-08 08:00 10.73492 111.65428 36834 ft 501 kts 67°
2026-05-08 08:01 10.76036 111.71973 36834 ft 501 kts 67°
2026-05-08 08:01 10.78596 111.78566 36834 ft 501 kts 67°
2026-05-08 08:02 10.81154 111.85157 36835 ft 501 kts 67°
2026-05-08 08:02 10.83709 111.91745 36834 ft 501 kts 67°
2026-05-08 08:03 10.86263 111.98335 36836 ft 500 kts 67°
2026-05-08 08:03 10.88814 112.04922 36836 ft 500 kts 67°
2026-05-08 08:04 10.91364 112.11512 36836 ft 500 kts 67°
2026-05-08 08:04 10.94250 112.17931 36835 ft 498 kts 57°
2026-05-08 08:05 10.98741 112.23253 36836 ft 496 kts 38°
2026-05-08 08:05 11.04241 112.27500 36835 ft 496 kts 35°
2026-05-08 08:06 11.09880 112.31568 36836 ft 497 kts 35°
2026-05-08 08:06 11.14571 112.34949 36837 ft 497 kts 35°
2026-05-08 08:07 11.21110 112.39711 36835 ft 497 kts 35°
2026-05-08 08:07 11.25819 112.43161 36834 ft 497 kts 36°
2026-05-08 08:08 11.31441 112.47285 36837 ft 497 kts 36°
2026-05-08 08:08 11.37020 112.51379 36838 ft 497 kts 36°
2026-05-08 08:09 11.42641 112.55503 36838 ft 497 kts 35°
2026-05-08 08:09 11.48256 112.59626 36838 ft 497 kts 36°
2026-05-08 08:10 11.53866 112.63762 36836 ft 497 kts 36°
2026-05-08 08:10 11.59477 112.67894 36837 ft 497 kts 36°
2026-05-08 08:11 11.65082 112.72025 36837 ft 497 kts 36°
2026-05-08 08:11 11.70687 112.76159 36839 ft 497 kts 36°
2026-05-08 08:12 11.76290 112.80294 36838 ft 497 kts 36°
2026-05-08 08:12 11.81861 112.84408 36838 ft 497 kts 36°
2026-05-08 08:13 11.87468 112.88550 36842 ft 497 kts 36°
2026-05-08 08:13 11.93070 112.92691 36841 ft 497 kts 36°
2026-05-08 08:14 11.98667 112.96830 36841 ft 497 kts 36°
2026-05-08 08:14 12.04256 113.00965 36838 ft 497 kts 36°
2026-05-08 08:15 12.09863 113.05117 36843 ft 497 kts 36°
2026-05-08 08:15 12.15462 113.09264 36844 ft 497 kts 36°
2026-05-08 08:16 12.21056 113.13409 36844 ft 497 kts 36°
2026-05-08 08:16 12.26651 113.17559 36843 ft 497 kts 36°
2026-05-08 08:17 12.32215 113.21686 36842 ft 497 kts 36°
2026-05-08 08:17 12.37808 113.25841 36844 ft 497 kts 36°
2026-05-08 08:18 12.43408 113.29999 36843 ft 497 kts 36°
2026-05-08 08:18 12.49009 113.34145 36842 ft 497 kts 36°
2026-05-08 08:19 12.54614 113.38299 36842 ft 497 kts 36°
2026-05-08 08:19 12.60210 113.42451 36841 ft 497 kts 36°